Probability
0 0 1 1 1 0 0 0 1 1 1 3 3 3 2 2 2 1 1 5 9 11 13 15 17 19 19 17 12 9 9 9 10 11 11 11 12 10 9 9 9 9 8 7
0 0 0 0 0 0 0 1 1 1 2 2 3 2 1 1 1 0 1 3 6 10 13 14 16 18 17 14 10 8 8 9 10 9 9 9 10 10 9 7 7 7 6 6
0 0 0 0 0 0 0 1 2 2 1 1 1 1 1 0 0 0 0 2 5 9 12 14 15 16 14 11 8 6 6 8 9 8 7 7 9 9 8 6 6 6 5 4
0 0 0 0 0 0 0 0 1 1 0 0 0 0 0 0 0 0 0 2 4 8 11 13 14 14 12 9 7 6 6 7 8 7 6 6 7 7 5 4 6 6 4 3
0 0 0 0 0 0 0 0 0 0 0 0 0 0 0 0 0 0 0 1 3 6 9 12 13 13 11 8 7 7 6 6 6 6 6 6 5 4 2 2 4 4 3 3
0 0 0 0 0 0 0 0 0 0 0 0 0 0 0 0 0 0 0 0 1 4 8 10 11 11 9 7 6 7 7 5 5 5 6 5 4 3 1 1 1 1 2 2
0 0 0 0 0 0 0 0 0 0 0 0 0 0 0 0 0 0 0 0 1 4 8 9 9 9 8 6 6 6 6 4 4 4 4 4 3 2 1 0 0 0 1 1
0 0 0 0 0 0 0 0 0 0 0 0 0 0 0 0 0 0 0 1 2 4 6 8 9 8 6 5 4 5 5 4 3 3 2 2 3 2 1 0 0 0 0 0
0 0 0 0 0 0 0 0 0 0 0 0 0 0 0 0 0 0 0 1 2 3 4 6 7 6 5 4 4 4 3 3 3 2 1 1 2 2 1 0 0 0 0 0
0 0 0 0 0 0 0 0 0 0 0 0 0 0 0 0 0 0 0 0 1 1 2 3 4 4 3 3 3 2 2 2 2 2 1 0 1 1 0 0 0 0 0 0
0 0 0 0 0 0 0 0 0 0 0 0 0 0 0 0 0 0 0 0 0 0 1 1 2 2 2 2 2 1 0 1 1 1 0 0 0 0 0 0 0 0 0 0
0 0 0 0 0 0 0 0 0 0 0 0 0 0 0 0 0 0 0 0 0 0 0 0 1 1 1 1 1 0 0 0 0 0 0 0 0 0 0 0 0 0 0 0
0 0 0 0 0 0 0 0 0 0 0 0 0 0 0 0 0 0 0 0 0 0 0 0 0 0 0 0 0 0 0 0 0 0 0 0 0 0 0 0 0 0 0 0
0 0 0 0 0 0 0 0 0 0 0 0 0 0 0 0 0 0 0 0 0 0 0 0 0 0 0 0 0 0 0 0 0 0 0 0 0 0 0 0 0 0 0 0
0 0 0 0 0 0 0 0 0 0 0 0 0 0 0 0 0 0 0 0 0 0 0 0 0 0 0 0 0 0 0 0 0 0 0 0 0 0 0 0 0 0 0 0
0 0 0 0 0 0 0 0 0 0 0 0 0 0 0 0 0 0 0 0 0 0 0 0 0 0 0 0 0 0 0 0 0 0 0 0 0 0 0 0 0 0 0 0
0 0 0 0 0 0 0 0 0 0 0 0 0 0 0 0 0 0 0 0 0 0 0 0 0 0 0 0 0 0 0 0 0 0 0 0 0 0 0 0 0 0 0 0
0 0 0 0 0 0 0 0 0 0 0 0 0 0 0 0 0 0 0 0 0 0 0 0 0 0 0 0 0 0 0 0 0 0 0 0 0 0 0 0 0 0 0 0
0 0 0 0 0 0 0 0 0 0 0 0 0 0 0 0 0 0 0 0 0 0 0 0 0 0 0 0 0 0 0 0 0 0 0 0 0 0 0 0 0 0 0 0
0 0 0 0 0 0 0 0 0 0 0 0 0 0 0 0 0 0 0 0 0 0 0 0 0 0 0 0 0 0 0 0 0 0 0 0 0 0 0 0 0 0 0 0
0 0 0 0 0 0 0 0 0 0 0 0 0 0 0 0 0 0 0 0 0 0 0 0 0 0 0 0 0 0 0 0 0 0 0 0 0 0 0 0 0 0 0 0
0 0 0 0 0 0 0 0 0 0 0 0 0 0 0 0 0 0 0 0 0 0 0 0 0 0 0 0 0 0 0 0 0 0 0 0 0 0 0 0 0 0 0 0
0 0 0 0 0 0 0 0 0 0 0 0 0 0 0 0 0 0 0 0 0 0 0 0 0 0 0 0 0 0 0 0 0 0 0 0 0 0 0 0 0 0 0 0
0 0 0 0 0 0 0 0 0 0 0 0 0 0 0 0 0 0 0 0 0 0 0 0 0 0 0 0 0 0 0 0 0 0 0 0 0 0 0 0 0 0 0 0
0 0 0 0 0 0 0 0 0 0 0 0 0 0 0 0 0 0 0 0 0 0 0 0 0 0 0 0 0 0 0 0 0 0 0 0 0 0 0 0 0 0 0 0
0 0 0 0 0 0 0 0 0 0 0 0 0 0 0 0 0 0 0 0 0 0 0 0 0 0 0 0 0 0 0 0 0 0 0 0 0 0 0 0 0 0 0 0
Wind_Speed
1 2 4 7 7 5 5 5 4 5 3 4 6 7 6 4 3 4 4 4 5 4 3 2 2 3 4 4 4 5 5 5 5 4 4 3 3 2 2 2 3 3 3 3
2 3 5 4 5 5 5 4 3 3 3 4 5 6 5 4 5 6 7 6 6 4 2 2 2 3 3 4 4 4 4 4 4 4 3 3 3 2 2 2 2 3 3 2
2 4 3 2 3 4 5 7 6 3 2 1 2 4 4 3 2 3 4 5 5 6 5 4 3 3 3 3 3 3 3 4 4 4 3 3 2 2 1 1 2 2 3 2
1 3 1 2 3 4 5 5 5 3 1 2 3 3 5 4 3 4 4 4 5 5 5 4 4 4 3 2 2 3 2 3 3 4 4 5 4 3 3 2 2 2 3 3
2 1 1 2 4 4 5 3 3 3 3 1 1 3 5 2 4 6 5 5 5 5 6 5 5 5 4 3 2 2 3 3 3 4 5 5 3 2 2 3 3 2 2 3
2 2 1 2 3 3 2 2 3 2 2 2 3 4 5 5 7 6 5 5 5 5 4 4 4 3 3 3 2 2 2 2 2 3 4 4 5 4 4 4 4 2 1 1
4 3 2 0 1 1 2 4 3 2 0 4 2 3 7 6 5 6 6 5 4 5 5 4 4 3 3 3 2 2 2 2 2 2 3 3 4 5 6 6 5 4 2 2
1 4 3 2 1 2 3 5 4 3 3 2 1 5 6 3 2 2 3 3 3 4 4 4 5 4 4 4 3 3 3 2 3 3 3 3 3 3 3 4 4 4 3 2
1 4 3 2 1 2 3 3 3 3 1 1 3 4 6 1 0 1 2 2 3 4 4 4 4 4 4 4 4 4 4 3 3 3 3 3 3 3 3 3 3 2 2 2
2 2 4 3 2 2 2 3 3 3 2 2 3 3 4 3 3 3 3 4 4 3 3 3 3 3 3 3 3 3 4 4 4 3 2 2 3 3 3 3 3 3 2 2
1 2 3 3 0 2 1 2 2 2 2 3 3 6 4 4 4 6 6 5 5 4 4 3 3 3 2 2 2 3 3 3 3 3 2 3 2 3 3 3 3 3 3 3
0 3 1 4 2 1 1 2 3 4 2 2 2 7 3 3 3 4 4 4 3 3 3 3 3 2 1 2 2 2 2 3 3 3 3 3 3 3 3 3 2 3 3 2
1 3 2 3 3 3 2 1 1 2 3 3 3 8 4 3 2 2 2 3 2 2 2 2 2 2 2 2 2 2 2 2 2 3 3 3 3 3 3 3 2 2 2 2
3 2 4 6 4 2 2 2 1 3 2 3 6 8 8 6 5 4 2 2 1 1 2 2 2 2 2 1 2 2 2 2 2 3 3 3 3 3 3 3 2 2 2 2
3 1 2 4 3 1 2 3 3 4 5 6 6 7 10 6 5 3 2 1 1 1 1 2 2 2 1 1 1 1 1 1 2 2 2 3 3 3 3 3 2 2 2 2
2 1 0 2 1 1 3 4 4 5 5 6 6 9 7 5 2 1 2 1 1 2 2 2 2 1 2 2 2 1 1 1 2 2 2 2 2 2 2 2 2 2 1 1
1 2 1 3 3 3 5 6 7 5 4 5 8 9 4 3 2 2 2 1 2 3 2 2 2 2 2 2 2 2 2 1 1 2 2 2 2 2 2 2 2 2 2 2
3 3 2 0 3 4 7 1 4 5 5 5 5 5 4 4 4 3 2 2 3 3 2 2 2 2 2 1 1 1 1 1 2 2 2 1 2 2 2 2 1 1 1 2
3 5 3 2 2 7 7 3 3 4 6 5 7 7 5 3 3 4 2 2 3 3 2 2 2 2 1 1 1 1 1 1 1 1 1 1 2 2 2 2 2 1 1 1
2 3 4 3 3 7 6 2 1 2 6 4 4 5 3 1 1 5 3 1 2 1 1 1 1 0 1 1 1 2 1 1 1 1 1 1 2 2 2 2 2 1 2 2
2 1 3 4 5 9 6 2 2 4 8 3 2 3 2 3 5 4 2 2 1 1 1 0 0 0 1 0 1 1 1 1 1 0 1 1 1 1 2 2 1 2 2 1
7 6 5 5 5 10 4 4 7 7 2 1 1 2 2 3 3 3 2 2 1 1 1 1 1 1 1 0 1 1 1 1 1 1 0 0 0 1 1 2 1 1 2 2
7 8 7 10 10 4 5 6 4 2 2 2 2 2 2 2 3 3 2 2 1 1 1 1 1 1 2 1 1 1 1 1 1 1 1 1 0 1 1 2 2 2 2 2
4 3 4 5 8 6 5 4 4 3 4 4 3 3 2 3 4 3 3 2 2 1 1 0 0 1 2 2 1 1 1 1 1 1 1 1 1 1 1 1 2 2 2 2
6 5 4 6 6 4 5 7 6 5 4 3 3 3 3 4 4 3 3 3 2 2 1 1 1 1 1 2 1 1 0 0 1 1 1 1 1 1 1 0 1 2 2 3
6 8 8 9 7 6 6 5 4 4 5 4 3 3 3 4 4 3 3 3 2 2 1 1 1 1 1 1 1 1 1 0 1 1 1 1 1 1 1 1 1 1 0 0
Wind_Direction
95 113 202 212 212 215 200 198 218 236 226 205 217 234 241 225 184 185 192 184 178 189 196 159 137 131 122 130 135 143 147 150 146 146 142 140 149 156 150 150 144 136 139 153
73 229 239 229 218 212 212 210 216 263 225 207 212 242 247 221 203 196 194 191 183 176 172 151 137 131 137 142 143 142 145 157 160 160 157 150 143 149 153 149 144 144 145 152
178 249 265 226 205 206 217 201 206 215 337 124 174 265 246 246 229 225 199 186 182 179 181 182 161 151 148 144 153 153 161 162 158 148 137 122 100 97 108 136 165 162 156 153
230 256 245 228 214 198 226 213 202 197 152 235 175 229 253 214 225 224 212 197 190 185 176 179 169 156 159 161 150 150 162 162 156 148 154 160 169 175 189 180 172 157 153 148
263 251 208 231 244 212 219 212 181 175 162 262 180 178 265 204 214 225 216 198 192 190 181 177 177 173 169 161 159 160 168 162 163 163 165 170 175 176 155 147 153 162 155 150
276 287 225 229 261 230 204 103 75 70 89 245 218 180 256 222 213 213 209 198 190 186 182 177 174 169 163 156 153 156 158 169 170 174 176 174 168 163 158 163 165 173 164 159
336 310 309 282 77 330 105 111 69 22 346 241 190 184 244 239 215 202 199 194 194 187 180 180 178 183 176 174 169 165 167 181 182 182 183 180 178 173 176 175 171 169 173 183
22 294 302 345 177 200 190 148 152 185 206 261 207 220 249 260 229 190 174 173 179 180 179 187 191 191 188 190 181 177 184 188 187 186 184 180 177 172 176 174 171 176 184 183
171 271 301 300 283 161 151 179 182 135 119 225 252 276 302 325 70 143 163 174 189 191 187 189 192 192 192 189 189 188 188 190 196 190 171 174 172 162 162 165 164 163 167 162
159 264 295 308 10 14 147 147 109 129 153 228 270 263 259 259 229 220 211 212 214 203 199 195 197 208 205 197 196 191 193 196 198 182 172 170 173 162 158 161 169 162 158 159
127 152 312 358 219 200 90 113 132 133 150 162 235 266 239 231 225 214 216 218 215 212 211 207 215 222 212 196 194 195 197 201 195 181 177 163 168 156 157 159 168 168 165 168
98 118 261 261 275 310 160 180 156 155 201 177 193 267 293 264 258 226 228 239 232 218 210 199 208 217 211 207 205 199 196 202 194 185 179 176 162 157 160 157 164 161 162 167
104 102 49 344 347 0 342 302 205 141 125 166 196 265 319 336 323 284 251 244 242 233 210 186 186 198 213 217 212 208 208 205 190 174 171 176 164 168 166 162 169 162 163 168
99 125 173 199 222 194 248 283 214 126 162 215 231 256 295 313 310 309 292 246 212 202 183 176 192 200 205 211 206 210 216 203 189 175 172 176 177 177 172 165 178 175 175 178
89 154 231 254 266 230 236 249 213 203 210 213 245 248 269 283 276 266 253 241 185 217 223 212 210 200 199 199 211 211 200 194 183 175 187 190 181 167 162 161 180 180 178 191
73 140 12 296 280 258 290 272 232 232 242 246 264 274 277 300 318 303 274 232 251 251 253 249 244 222 208 204 210 203 205 204 176 180 205 187 166 159 164 170 174 163 175 187
128 118 102 280 315 11 281 247 213 213 217 205 235 255 290 311 298 267 243 247 251 254 251 243 246 244 242 235 211 199 202 189 168 188 195 176 158 158 167 166 167 172 185 181
149 132 143 316 28 239 243 236 203 214 240 222 247 272 272 261 274 282 241 219 249 262 266 262 254 261 267 260 236 184 173 172 181 190 181 167 165 178 178 163 178 185 176 185
164 148 136 143 239 276 288 251 184 201 266 235 239 266 286 305 349 314 283 223 238 245 247 243 247 251 256 246 213 164 160 162 184 180 175 189 187 189 183 181 199 194 175 192
91 112 129 147 187 241 256 258 213 121 284 255 220 246 271 52 309 279 303 308 285 280 270 257 268 286 239 241 165 152 171 176 191 194 219 220 205 195 195 192 200 195 185 197
130 115 169 187 222 261 257 256 122 166 252 263 211 226 215 207 231 274 310 315 293 272 292 100 96 295 266 240 134 147 171 205 218 209 216 226 221 209 196 177 187 182 169 160
177 174 190 173 204 251 216 151 190 222 251 214 217 228 235 248 280 297 297 295 306 324 349 12 19 323 312 217 142 143 199 206 149 142 167 235 196 202 190 158 169 175 160 162
203 196 189 194 214 240 193 208 231 212 218 227 222 233 229 253 273 287 289 284 276 255 309 346 7 329 325 318 154 158 242 187 142 141 162 192 212 199 200 173 172 172 172 175
246 207 199 242 255 251 244 254 261 232 227 233 225 223 217 241 263 276 278 274 272 262 260 292 19 321 325 333 352 199 220 163 143 156 171 176 162 176 190 195 185 187 191 181
221 180 214 253 271 288 261 238 242 246 242 238 240 229 223 225 248 249 260 257 254 267 276 265 237 247 293 315 336 321 292 152 147 148 157 163 165 166 170 210 224 225 223 204
193 184 191 229 224 211 241 232 217 219 229 228 229 245 243 220 233 244 252 251 243 254 267 279 278 273 286 301 307 306 298 225 148 137 137 154 165 165 163 151 78 26 238 257